This demonstration page uses our WeatherBlox Daily Observations layout. Learn more.

Left ArrowRight Arrow

Hourly Observations for June 14, 2020

Temp ( °F °C ) Dew Point ( °F °C ) Humidity (%) Winds ( mph kmh ) Pressure ( in mb ) Visibility ( mi km ) Precip ( " mm )
12:56 am 00:56 Clear 76 24.3 62 16.8 63 63 ESE 14 22 30.04 1017 10 16 0.00 0.00
1:56 am 01:56 Clear 74 23.2 62 16.9 68 68 undefined N/A 30.04 1017 10 16 0.00 0.00
2:56 am 02:56 Mostly Cloudy 74 23.1 62 16.9 68 68 ESE 13 20 30.04 1017 10 16 0.00 0.00
3:56 am 03:56 Mostly Cloudy 74 23.1 62 16.6 67 67 ESE 12 19 30.04 1017 10 16 0.00 0.00
4:56 am 04:56 Mostly Clear 72 22.2 61 16.2 69 69 ESE 13 20 30.04 1017 10 16 0.00 0.00
5:56 am 05:56 Partly Cloudy 71 21.4 61 16.1 72 72 ESE 13 20 30.06 1018 10 16 0.00 0.00
6:56 am 06:56 Sunny 71 21.8 61 16.3 71 71 ESE 10 17 30.08 1019 10 16 0.00 0.00
7:56 am 07:56 Sunny 71 21.8 61 16.3 71 71 ESE 12 19 30.08 1019 10 16 0.00 0.00
8:56 am 08:56 Sunny 74 23.6 62 16.6 65 65 SE 16 26 30.08 1019 10 16 0.00 0.00
9:56 am 09:56 Sunny 78 25.6 64 17.8 62 62 SE 17 28 30.06 1018 10 16 0.00 0.00
10:56 am 10:56 Sunny 81 27.4 65 18.1 57 57 SSE 17 28 30.04 1017 10 16 0.00 0.00
11:56 am 11:56 Sunny 83 28.6 65 18.6 55 55 SSE 18 30 30.04 1017 10 16 0.00 0.00
12:56 pm 12:56 Mostly Sunny 84 29.1 66 19.1 55 55 SSE 21 33 30.01 1016 10 16 0.00 0.00
1:56 pm 13:56 Partly Cloudy 88 31.3 66 18.9 48 48 SSE 21 33 29.98 1015 10 16 0.00 0.00
2:56 pm 14:56 Mostly Sunny 91 32.6 63 17.2 40 40 SSE 23 37 29.97 1015 10 16 0.00 0.00
3:56 pm 15:56 Mostly Sunny 91 32.6 64 18 42 42 SSE 21 33 29.98 1015 10 16 0.00 0.00
4:56 pm 16:56 Mostly Sunny 90 32.4 65 18.2 43 43 SSE 18 30 29.98 1015 10 16 0.00 0.00
5:56 pm 17:56 Sunny 89 31.8 64 18 44 44 SSE 21 33 29.98 1015 10 16 0.00 0.00
6:56 pm 18:56 Sunny 88 31.1 65 18.4 47 47 SSE 15 24 29.98 1015 10 16 0.00 0.00
7:56 pm 19:56 Sunny 87 30.6 65 18.3 48 48 SSE 13 20 30.00 1016 10 16 0.00 0.00
8:56 pm 20:56 Sunny 84 28.9 65 18.3 53 53 SSE 13 20 30.01 1016 10 16 0.00 0.00
9:56 pm 21:56 Clear 81 27.4 64 17.8 56 56 SSE 10 17 30.03 1017 10 16 0.00 0.00
10:56 pm 22:56 Partly Cloudy 80 26.5 66 18.9 63 63 SE 10 17 30.04 1017 10 16 0.00 0.00
11:56 pm 23:56 Partly Cloudy 79 26.2 65 18.6 63 63 SSE 10 17 30.04 1017 10 16 0.00 0.00

Powered by AerisWeather